Retour au catalogue

STARLINK-36646

ActifCommunicationsVLEO
NORAD 67823·PAYLOAD·🇺🇸 United States

Lancé Feb 16, 2026 depuis Vandenberg Space Force Base

Loading…

Prochains Passages (prochaines 24 heures)

TLE

FraisSource: CelesTrak SupGP

Époque: Sep 14, 2026, 22:32 UTC

1 67823C 26033C   26257.93937500  .00027186  00000+0  98575-3 0  2575
2 67823  43.0024 278.2869 0001846 263.2969 224.3614 15.27528062    10

Suivez STARLINK-36646 en temps réel avec AllMySat

Download on the App Store